Location: Kapla
(46.2483°N, 15.0094°E)
Time: 21:39:05
(UTC+00:00)

Cosmos 1339 Rocket - Pass Details

Date: 03 March 2021
Orbit: 943 x 1005 km, 82.9° (Epoch: 21 April)

Event Time Altitude Azimuth Distance (km) Brightness Sun altitude
Rises 18:18:12 0° 353° (N) 3,651 7.7 -16.2°
Reaches altitude 10° 18:20:44 10° 356° (N) 2,709 7.0 -16.6°
Maximum altitude 18:26:54 66° 79° (E) 1,061 4.4 -17.6°
Drops below altitude 10° 18:33:08 10° 161° (SSE) 2,734 6.6 -18.7°
Sets 18:35:41 0° 164° (SSE) 3,687 7.3 -19.1°
